Regional Weather Roundup
Issued by NWS

Home | Current Version | Previous Version | Text Only | Print | Product List | Glossary On
Versions: 1 2 3 4 5 6 7 8 9 10 11 12 13 14 15 16 17 18 19 20 21 22 23 24 25 26 27 28 29 30 31 32 33 34 35 36 37 38 39 40 41 42 43 44 45 46 47 48 49 50
000
ASUS44 KOUN 191800
RWROK

WEATHER ROUNDUP FOR OKLAHOMA
NATIONAL WEATHER SERVICE NORMAN OK
100 PM CDT FRI SEP 19 2014

NOTE: "FAIR" INDICATES FEW OR NO CLOUDS BELOW 12,000 FEET WITH NO
      SIGNIFICANT WEATHER AND/OR OBSTRUCTIONS TO VISIBILITY.

OKZ001>007-009>012-014-015-017-191900-
NORTHWEST OKLAHOMA AND THE PANHANDLE

CITY           SKY/WX    TMP DP  RH WIND       PRES   REMARKS
GAGE           PTSUNNY   83  65  54 S12       30.01F
6HR MIN TEMP:  61; 6HR MAX TEMP:  83;

ENID/WOODRING  PTSUNNY   88  66  48 S15       29.98S HX  90
$$

OKZ016-021>023-033>039-044-045-191900-
SOUTHWEST OKLAHOMA

CITY           SKY/WX    TMP DP  RH WIND       PRES   REMARKS
LAWTON/REGL    SUNNY     86  64  47 S8G16     29.99F
6HR MIN TEMP:  68; 6HR MAX TEMP:  86;

FREDERICK      PTSUNNY   84  67  56 SE12G18   29.96F
CLINTON        SUNNY     85  64  49 SE8       30.02F
HOBART         MOSUNNY   86  65  49 S10       30.00F
ALTUS AFB      MOSUNNY   84  68  58 S12       29.99F
$$

OKZ018>020-024>031-191900-
CENTRAL OKLAHOMA

CITY           SKY/WX    TMP DP  RH WIND       PRES   REMARKS
OKLAHOMA CITY  MOSUNNY   84  66  54 SE13G21   30.01S
6HR MIN TEMP:  66; 6HR MAX TEMP:  85;

OKC/WILEY POST PTSUNNY   83  68  60 S9        30.00F
STILLWATER     MOSUNNY   82  71  69 S8        30.01S
GUTHRIE        MOSUNNY   82  69  64 S10       30.00F
$$

OKZ008-013-054>072-191900-
NORTHEAST OKLAHOMA

CITY           SKY/WX    TMP DP  RH WIND       PRES   REMARKS
TULSA          CLOUDY    75  69  81 SE7       30.01S FOG
6HR MIN TEMP:  69; 6HR MAX TEMP:  75;

TULSA/JONES    CLOUDY    73  69  87 SE6       30.03R
PONCA CITY     MOSUNNY   82  70  66 S9        29.99F
BARTLESVILLE   CLOUDY    73  70  90 SE7       30.03S
MUSKOGEE       CLOUDY    75  68  78 SE10      30.04S
$$

OKZ032-040>043-046>053-073>077-191900-
SOUTH CENTRAL/SOUTHEAST OKLAHOMA

CITY           SKY/WX    TMP DP  RH WIND       PRES   REMARKS
MCALESTER      MOSUNNY   81  70  69 VRB3      30.02F
$$




USA.gov is the U.S. government's official web portal to all federal, state and local government web resources and services.